Location: Ch�tillon
(48.8024°N, 2.2935°E)
Time: 09:35:07
(UTC+00:00)

CAS-4A - Pass Details

Date: 11 July 2022
Orbit: 521 x 536 km, 43.0° (Epoch: 14 August)

Event Time Altitude Azimuth Distance (km) Brightness Sun altitude
Exits shadow 01:36:57 17° 153° (SSE) 1,356 ? -15.6°
Drops below altitude 10° 01:38:15 10° 139° (SE) 1,753 ? -15.5°
Sets 01:40:43 0° 127° (SE) 2,642 ? -15.3°
